This is the latest recevied weather packets stored in our database for station/object XE2VP-WX. If no packets are shown the sender has not sent any weather packets the latest 1 day(s).
| Time | Temp. | Humidity | Pressure | Rain* | Wind** | Luminosity | Snow |
|---|---|---|---|---|---|---|---|
| 1777987779 | 23.33° C | 63% | 940 hPa | 0 mm | 0.45 m/s, 0° | 202 W/m² | - |
| 1777987719 | 23.33° C | 63% | 940 hPa | 0 mm | 0.45 m/s, 35° | 201 W/m² | - |
| 1777987659 | 23.33° C | 64% | 940 hPa | 0 mm | 0.45 m/s, 0° | 193 W/m² | - |
| 1777987598 | 23.33° C | 64% | 940 hPa | 0 mm | 0.45 m/s, 0° | 194 W/m² | - |
| 1777987539 | 23.33° C | 64% | 939.9 hPa | 0 mm | 0.45 m/s, 236° | 191 W/m² | - |
| 1777987479 | 23.33° C | 65% | 939.9 hPa | 0 mm | 0.45 m/s, 41° | 183 W/m² | - |
| 1777987419 | 23.33° C | 65% | 939.9 hPa | 0 mm | 0.45 m/s, 43° | 176 W/m² | - |
| 1777987359 | 23.33° C | 65% | 939.9 hPa | 0 mm | 0.45 m/s, 274° | 179 W/m² | - |
| 1777987299 | 23.33° C | 65% | 939.9 hPa | 0 mm | 0.45 m/s, 227° | 172 W/m² | - |
| 1777987239 | 22.78° C | 65% | 939.9 hPa | 0 mm | 0.45 m/s, 202° | 168 W/m² | - |
| 1777987179 | 22.78° C | 65% | 939.9 hPa | 0 mm | 0.89 m/s, 0° | 166 W/m² | - |
| 1777987119 | 22.78° C | 66% | 939.8 hPa | 0 mm | 0.89 m/s, 0° | 163 W/m² | - |
| 1777987059 | 22.78° C | 66% | 939.8 hPa | 0 mm | 0.89 m/s, 0° | 161 W/m² | - |
| 1777986999 | 22.78° C | 66% | 939.8 hPa | 0 mm | 0.89 m/s, 308° | 158 W/m² | - |
| 1777986938 | 22.78° C | 66% | 939.8 hPa | 0 mm | 0.89 m/s, 246° | 153 W/m² | - |
| 1777986877 | 22.78° C | 66% | 939.8 hPa | 0 mm | 0.89 m/s, 272° | 141 W/m² | - |
| 1777986818 | 22.78° C | 66% | 939.8 hPa | 0 mm | 0.89 m/s, 247° | 134 W/m² | - |
| 1777986757 | 22.78° C | 66% | 939.8 hPa | 0 mm | 0.89 m/s, 283° | 125 W/m² | - |
| 1777986698 | 22.78° C | 66% | 939.8 hPa | 0 mm | 0.89 m/s, 288° | 135 W/m² | - |
| 1777986638 | 22.22° C | 66% | 939.8 hPa | 0 mm | 0.89 m/s, 291° | 137 W/m² | - |
| 1777986577 | 22.22° C | 66% | 939.8 hPa | 0 mm | 0.89 m/s, 245° | 134 W/m² | - |
| 1777986513 | 22.22° C | 67% | 939.8 hPa | 0 mm | 0.89 m/s, 298° | 135 W/m² | - |
| 1777986454 | 22.22° C | 67% | 939.8 hPa | 0 mm | 0.89 m/s, 290° | 134 W/m² | - |
| 1777986393 | 22.22° C | 67% | 939.8 hPa | 0 mm | 0.89 m/s, 237° | 131 W/m² | - |
| 1777986334 | 22.22° C | 67% | 939.8 hPa | 0 mm | 0.89 m/s, 275° | 126 W/m² | - |
* Rain latest hour (hover to see other rain measurements)
** Current wind speed in m/s (hover to see current wind gust speed)